QPF
0.00 0.00 0.00 0.00 0.00 0.00 0.00 0.00 0.00 0.00 0.00 0.00 0.00 0.00 0.00 0.00 0.00 0.00 0.00 0.00 0.00 0.00 0.00 0.00 0.00 0.00 0.00 0.00 0.00 0.00 0.00 0.00 0.00 0.00 0.00 0.00 0.00 0.00 0.00 0.00 0.00 0.00 0.00
0.00 0.00 0.00 0.00 0.00 0.00 0.00 0.00 0.00 0.00 0.00 0.00 0.00 0.00 0.00 0.00 0.00 0.00 0.00 0.00 0.00 0.00 0.00 0.00 0.00 0.00 0.00 0.00 0.00 0.00 0.00 0.00 0.00 0.00 0.00 0.00 0.00 0.00 0.00 0.00 0.00 0.00 0.00
0.00 0.00 0.00 0.00 0.00 0.00 0.00 0.00 0.00 0.00 0.00 0.00 0.00 0.00 0.00 0.00 0.00 0.00 0.00 0.00 0.00 0.00 0.00 0.00 0.00 0.00 0.00 0.00 0.00 0.00 0.00 0.00 0.00 0.00 0.00 0.00 0.00 0.00 0.00 0.00 0.00 0.00 0.00
0.00 0.00 0.00 0.00 0.00 0.00 0.00 0.00 0.00 0.00 0.00 0.00 0.00 0.00 0.00 0.00 0.00 0.00 0.00 0.00 0.00 0.00 0.00 0.00 0.00 0.00 0.00 0.00 0.00 0.00 0.00 0.00 0.00 0.00 0.00 0.00 0.00 0.00 0.00 0.00 0.00 0.00 0.00
0.00 0.00 0.00 0.00 0.00 0.00 0.00 0.00 0.00 0.00 0.00 0.00 0.00 0.00 0.00 0.00 0.00 0.00 0.00 0.00 0.00 0.00 0.00 0.00 0.00 0.00 0.00 0.00 0.00 0.00 0.00 0.00 0.00 0.00 0.00 0.00 0.00 0.00 0.00 0.00 0.00 0.00 0.00
0.00 0.00 0.00 0.00 0.00 0.00 0.00 0.00 0.00 0.00 0.00 0.00 0.00 0.00 0.00 0.00 0.00 0.00 0.00 0.00 0.00 0.00 0.00 0.00 0.00 0.00 0.00 0.00 0.00 0.00 0.00 0.00 0.00 0.00 0.00 0.00 0.00 0.00 0.00 0.00 0.00 0.00 0.00
0.00 0.00 0.00 0.00 0.00 0.00 0.00 0.00 0.00 0.00 0.00 0.00 0.00 0.00 0.00 0.00 0.00 0.00 0.00 0.00 0.00 0.00 0.00 0.00 0.00 0.00 0.00 0.00 0.00 0.00 0.00 0.00 0.00 0.00 0.00 0.00 0.00 0.00 0.00 0.00 0.00 0.00 0.00
0.00 0.00 0.00 0.00 0.00 0.00 0.00 0.00 0.00 0.00 0.00 0.00 0.00 0.00 0.00 0.00 0.00 0.00 0.00 0.00 0.00 0.00 0.00 0.00 0.00 0.00 0.00 0.00 0.00 0.00 0.00 0.00 0.00 0.00 0.00 0.00 0.00 0.00 0.00 0.00 0.00 0.00 0.00
0.00 0.00 0.00 0.00 0.00 0.00 0.00 0.00 0.00 0.00 0.00 0.00 0.00 0.00 0.00 0.00 0.00 0.00 0.00 0.00 0.00 0.00 0.00 0.00 0.00 0.00 0.00 0.00 0.00 0.00 0.00 0.00 0.00 0.00 0.00 0.00 0.00 0.00 0.00 0.00 0.00 0.00 0.00
0.01 0.00 0.00 0.00 0.00 0.00 0.00 0.00 0.00 0.00 0.00 0.00 0.00 0.00 0.00 0.00 0.00 0.00 0.00 0.00 0.00 0.00 0.00 0.00 0.00 0.00 0.00 0.00 0.00 0.00 0.00 0.00 0.00 0.00 0.00 0.00 0.00 0.00 0.00 0.00 0.00 0.00 0.00
0.01 0.01 0.00 0.00 0.00 0.00 0.00 0.00 0.00 0.00 0.00 0.00 0.00 0.00 0.00 0.00 0.00 0.00 0.00 0.00 0.00 0.00 0.00 0.00 0.00 0.00 0.00 0.00 0.00 0.00 0.00 0.00 0.00 0.00 0.00 0.00 0.00 0.00 0.00 0.00 0.00 0.00 0.00
0.04 0.03 0.01 0.00 0.00 0.00 0.00 0.00 0.00 0.00 0.00 0.00 0.00 0.00 0.00 0.00 0.00 0.00 0.00 0.00 0.00 0.00 0.00 0.00 0.00 0.00 0.00 0.00 0.00 0.00 0.00 0.00 0.00 0.00 0.00 0.00 0.00 0.00 0.00 0.00 0.00 0.00 0.00
0.04 0.03 0.03 0.03 0.02 0.00 0.00 0.00 0.00 0.00 0.00 0.00 0.00 0.00 0.00 0.00 0.00 0.00 0.00 0.00 0.00 0.00 0.00 0.00 0.00 0.00 0.00 0.00 0.00 0.00 0.00 0.00 0.00 0.00 0.00 0.00 0.00 0.00 0.00 0.00 0.00 0.00 0.00
0.02 0.03 0.04 0.05 0.06 0.04 0.02 0.01 0.01 0.00 0.00 0.00 0.00 0.00 0.00 0.00 0.00 0.00 0.00 0.00 0.00 0.00 0.00 0.00 0.00 0.00 0.00 0.00 0.00 0.00 0.00 0.00 0.00 0.00 0.00 0.00 0.00 0.00 0.00 0.00 0.00 0.00 0.00
0.07 0.09 0.08 0.06 0.08 0.10 0.09 0.06 0.04 0.02 0.01 0.01 0.01 0.00 0.00 0.00 0.00 0.00 0.00 0.00 0.00 0.00 0.00 0.00 0.00 0.00 0.00 0.00 0.00 0.00 0.00 0.00 0.00 0.00 0.00 0.00 0.00 0.00 0.00 0.00 0.00 0.00 0.00
0.05 0.04 0.04 0.05 0.09 0.10 0.12 0.11 0.08 0.07 0.06 0.05 0.05 0.01 0.00 0.00 0.00 0.00 0.00 0.00 0.00 0.00 0.00 0.00 0.00 0.00 0.00 0.00 0.00 0.00 0.00 0.00 0.00 0.00 0.00 0.00 0.00 0.00 0.00 0.00 0.00 0.00 0.00
0.05 0.04 0.02 0.01 0.01 0.02 0.03 0.04 0.05 0.05 0.04 0.03 0.06 0.06 0.04 0.05 0.04 0.03 0.03 0.01 0.00 0.00 0.00 0.00 0.00 0.00 0.00 0.00 0.00 0.00 0.00 0.00 0.00 0.00 0.00 0.00 0.00 0.00 0.00 0.00 0.00 0.00 0.00
0.01 0.01 0.01 0.01 0.00 0.00 0.01 0.01 0.01 0.02 0.03 0.02 0.02 0.05 0.04 0.08 0.07 0.06 0.06 0.04 0.03 0.02 0.02 0.01 0.00 0.00 0.01 0.01 0.00 0.00 0.00 0.00 0.00 0.00 0.00 0.00 0.00 0.00 0.00 0.00 0.00 0.00 0.00
0.00 0.00 0.00 0.00 0.01 0.02 0.02 0.03 0.02 0.02 0.04 0.05 0.05 0.05 0.04 0.08 0.09 0.06 0.06 0.04 0.03 0.03 0.06 0.04 0.01 0.00 0.01 0.01 0.02 0.00 0.00 0.01 0.00 0.00 0.00 0.00 0.00 0.00 0.00 0.00 0.00 0.00 0.00
0.00 0.00 0.00 0.00 0.01 0.04 0.06 0.07 0.06 0.02 0.01 0.03 0.04 0.07 0.06 0.06 0.06 0.05 0.05 0.04 0.03 0.03 0.03 0.03 0.01 0.00 0.00 0.00 0.00 0.00 0.00 0.00 0.00 0.00 0.00 0.00 0.00 0.00 0.00 0.00 0.00 0.00 0.00
0.00 0.00 0.00 0.00 0.00 0.02 0.03 0.06 0.08 0.08 0.07 0.07 0.08 0.08 0.07 0.06 0.05 0.05 0.05 0.03 0.04 0.03 0.02 0.01 0.01 0.01 0.00 0.00 0.00 0.00 0.00 0.00 0.00 0.00 0.00 0.00 0.00 0.00 0.00 0.00 0.00 0.00 0.00
0.00 0.01 0.02 0.03 0.01 0.00 0.00 0.01 0.02 0.01 0.01 0.02 0.03 0.03 0.03 0.02 0.01 0.01 0.02 0.03 0.04 0.05 0.05 0.05 0.03 0.03 0.02 0.02 0.01 0.01 0.01 0.00 0.00 0.00 0.00 0.00 0.00 0.00 0.01 0.00 0.00 0.00 0.00
0.01 0.00 0.01 0.01 0.00 0.00 0.00 0.00 0.00 0.00 0.00 0.00 0.00 0.00 0.00 0.00 0.01 0.01 0.01 0.01 0.01 0.02 0.04 0.04 0.03 0.03 0.03 0.04 0.04 0.03 0.02 0.02 0.00 0.00 0.01 0.00 0.01 0.00 0.00 0.00 0.00 0.00 0.00
0.00 0.00 0.00 0.00 0.00 0.00 0.00 0.00 0.00 0.00 0.00 0.00 0.00 0.00 0.00 0.00 0.00 0.00 0.00 0.00 0.00 0.02 0.02 0.02 0.01 0.01 0.01 0.01 0.03 0.03 0.03 0.03 0.01 0.01 0.03 0.02 0.01 0.01 0.01 0.00 0.00 0.00 0.00
0.00 0.00 0.00 0.00 0.00 0.00 0.00 0.00 0.00 0.00 0.00 0.00 0.00 0.00 0.00 0.00 0.00 0.00 0.00 0.00 0.00 0.00 0.00 0.00 0.00 0.00 0.00 0.00 0.01 0.01 0.01 0.02 0.00 0.00 0.01 0.02 0.01 0.01 0.01 0.00 0.01 0.00 0.00
0.00 0.00 0.00 0.00 0.00 0.00 0.00 0.00 0.00 0.00 0.00 0.00 0.00 0.00 0.00 0.00 0.00 0.00 0.00 0.00 0.00 0.00 0.00 0.00 0.00 0.00 0.00 0.00 0.00 0.00 0.00 0.00 0.00 0.00 0.00 0.01 0.01 0.02 0.01 0.01 0.02 0.02 0.03
MSLP
1021.47 1021.97 1022.31 1022.71 1023.00 1023.09 1023.80 1023.49 1023.74 1024.31 1024.49 1024.65 1024.74 1024.75 1024.65 1024.42 1024.85 1024.99 1026.42 1027.33 1027.35 1027.56 1027.65 1027.85 1028.15 1028.37 1028.58 1028.72 1028.84 1029.00 1029.05 1029.05 1029.24 1029.36 1029.47 1029.58 1029.67 1029.69 1029.72 1029.74 1029.73 1029.69 1029.65
1021.50 1021.42 1022.01 1022.31 1022.81 1022.80 1022.98 1023.25 1023.83 1024.22 1024.37 1024.62 1024.95 1024.96 1025.00 1024.95 1024.90 1025.39 1026.03 1027.09 1027.45 1027.47 1027.68 1027.78 1028.00 1028.26 1028.46 1028.65 1028.86 1028.89 1028.98 1029.10 1029.22 1029.34 1029.56 1029.68 1029.81 1029.88 1029.88 1029.89 1029.94 1029.92 1029.87
1021.84 1021.96 1022.23 1022.43 1022.47 1022.63 1023.08 1023.30 1023.85 1023.91 1024.20 1024.59 1024.86 1025.19 1025.07 1025.12 1025.07 1025.26 1025.27 1026.14 1027.25 1027.50 1027.57 1027.66 1027.91 1027.98 1028.22 1028.49 1028.66 1028.79 1028.83 1028.99 1029.14 1029.32 1029.47 1029.59 1029.67 1029.80 1029.86 1029.85 1029.91 1029.95 1029.95
1021.92 1022.15 1022.12 1022.50 1022.65 1022.66 1023.09 1023.25 1023.65 1023.70 1023.93 1024.29 1024.52 1024.81 1024.77 1025.07 1025.21 1025.37 1025.23 1025.31 1025.79 1026.37 1027.26 1027.46 1027.62 1027.77 1027.91 1028.01 1028.17 1028.42 1028.53 1028.62 1028.84 1028.96 1029.19 1029.34 1029.49 1029.57 1029.67 1029.71 1029.73 1029.80 1029.78
1021.80 1022.01 1021.71 1022.23 1022.67 1022.81 1022.98 1023.16 1023.55 1023.55 1023.70 1023.97 1024.34 1024.60 1024.61 1024.71 1025.19 1025.07 1025.16 1025.52 1025.48 1025.53 1025.85 1026.64 1027.12 1027.40 1027.65 1027.78 1027.79 1027.86 1027.93 1028.15 1028.37 1028.57 1028.69 1028.87 1029.01 1029.16 1029.32 1029.36 1029.42 1029.52 1029.54
1021.72 1021.97 1021.56 1022.05 1022.74 1022.72 1022.88 1023.06 1023.29 1023.51 1023.50 1023.83 1023.99 1024.42 1024.69 1024.65 1024.70 1024.87 1025.12 1025.27 1025.38 1025.65 1025.68 1026.13 1026.81 1026.95 1027.31 1027.34 1027.44 1027.44 1027.35 1027.42 1027.58 1027.89 1028.11 1028.24 1028.46 1028.64 1028.78 1028.93 1028.95 1029.08 1029.14
1021.48 1021.93 1021.62 1022.08 1022.63 1022.79 1022.98 1023.28 1023.45 1023.49 1023.62 1023.78 1024.12 1024.52 1024.73 1024.89 1024.90 1024.75 1024.75 1024.82 1024.92 1025.21 1025.46 1025.51 1025.40 1025.25 1025.90 1026.56 1026.76 1026.95 1027.02 1026.98 1026.94 1027.07 1027.30 1027.57 1027.75 1027.97 1028.16 1028.29 1028.37 1028.39 1028.52
1021.11 1021.42 1021.59 1021.72 1022.26 1022.35 1022.69 1023.15 1023.56 1023.54 1023.82 1024.01 1024.16 1024.10 1024.09 1024.27 1024.36 1024.61 1024.56 1024.46 1024.67 1024.61 1024.62 1024.94 1024.96 1024.98 1024.87 1025.44 1025.83 1026.15 1026.28 1026.39 1026.38 1026.38 1026.44 1026.69 1026.94 1027.23 1027.47 1027.59 1027.70 1027.83 1027.87
1020.89 1020.99 1021.32 1021.24 1021.62 1021.87 1022.07 1022.82 1023.29 1023.52 1023.55 1023.98 1024.35 1023.87 1023.57 1023.26 1022.98 1023.41 1024.03 1024.18 1024.19 1024.32 1024.21 1024.09 1024.20 1024.44 1024.51 1024.45 1024.47 1025.06 1025.41 1025.63 1025.74 1025.80 1025.82 1025.86 1026.05 1026.23 1026.47 1026.78 1026.97 1027.07 1027.12
1020.49 1020.51 1020.96 1021.38 1021.47 1021.59 1021.70 1022.36 1022.87 1023.10 1023.45 1023.54 1023.93 1024.23 1023.75 1023.59 1023.09 1022.68 1023.18 1023.51 1023.87 1023.78 1023.72 1023.75 1023.53 1023.70 1023.90 1023.97 1023.94 1023.96 1024.29 1024.62 1024.84 1025.09 1025.25 1025.27 1025.31 1025.36 1025.44 1025.57 1025.76 1025.98 1026.16
1019.37 1019.82 1020.19 1020.74 1021.11 1021.26 1021.46 1021.63 1022.28 1022.74 1022.94 1023.11 1023.28 1023.60 1023.77 1023.75 1023.85 1023.57 1022.83 1022.75 1023.09 1023.04 1022.84 1023.05 1023.16 1022.94 1023.02 1023.23 1023.16 1023.12 1023.40 1023.88 1024.15 1024.32 1024.42 1024.50 1024.50 1024.60 1024.64 1024.61 1024.67 1024.76 1024.92
1018.83 1019.09 1019.42 1019.95 1020.50 1020.84 1020.80 1021.15 1021.52 1022.03 1022.60 1022.63 1022.81 1022.63 1022.85 1023.05 1023.00 1022.91 1022.74 1022.42 1022.05 1021.87 1022.13 1022.18 1022.22 1022.33 1022.22 1022.18 1022.31 1022.41 1022.62 1022.90 1023.08 1023.11 1023.22 1023.38 1023.46 1023.41 1023.47 1023.62 1023.73 1023.77 1023.86
1018.42 1018.40 1018.83 1019.33 1019.67 1020.14 1020.28 1020.39 1020.91 1021.18 1021.65 1022.10 1022.31 1022.31 1022.09 1022.07 1022.30 1022.25 1022.14 1022.01 1021.69 1021.53 1021.30 1021.36 1021.44 1021.35 1021.49 1021.49 1021.30 1021.32 1021.43 1021.74 1021.93 1022.03 1022.20 1022.27 1022.38 1022.55 1022.55 1022.57 1022.68 1022.68 1022.61
1017.91 1017.60 1017.95 1018.64 1019.08 1019.42 1019.67 1020.02 1020.53 1020.70 1020.93 1021.26 1021.69 1021.88 1021.87 1021.68 1021.97 1021.99 1021.88 1021.58 1021.29 1020.78 1020.53 1020.37 1020.71 1020.81 1020.93 1020.82 1020.62 1020.79 1020.83 1020.86 1020.86 1020.89 1020.97 1021.27 1021.53 1021.70 1021.91 1021.91 1021.77 1021.65 1021.74
1017.43 1017.41 1017.55 1018.15 1018.67 1019.00 1019.17 1019.69 1020.10 1020.24 1020.27 1020.55 1020.83 1021.12 1021.29 1021.33 1021.41 1021.30 1021.22 1021.11 1021.00 1020.48 1019.60 1019.35 1019.12 1018.88 1019.18 1019.42 1019.50 1019.77 1019.73 1019.52 1019.88 1020.19 1020.29 1020.19 1020.24 1020.33 1020.37 1020.50 1020.51 1020.53 1020.50
1017.20 1017.19 1017.50 1018.01 1018.41 1018.63 1018.79 1019.29 1019.68 1020.18 1020.25 1020.39 1020.14 1020.30 1020.62 1020.76 1020.75 1020.75 1020.71 1020.64 1020.54 1020.36 1019.50 1019.24 1018.64 1018.59 1018.32 1018.22 1018.25 1018.63 1018.54 1018.70 1018.80 1019.04 1019.23 1019.43 1019.24 1019.13 1019.12 1018.96 1019.03 1019.20 1019.20
1016.77 1016.73 1017.68 1018.40 1018.46 1018.49 1018.66 1019.23 1019.72 1019.95 1019.74 1019.95 1018.78 1020.07 1020.08 1020.21 1020.34 1020.32 1020.31 1020.15 1019.92 1019.85 1019.51 1018.42 1018.52 1018.15 1017.99 1018.06 1017.97 1017.91 1017.65 1017.72 1017.59 1017.62 1017.67 1017.69 1017.78 1017.85 1018.09 1018.26 1018.23 1018.26 1018.30
1016.52 1017.05 1016.86 1017.94 1018.58 1018.54 1018.50 1018.86 1018.79 1019.17 1019.73 1019.68 1019.77 1019.79 1019.52 1019.82 1019.85 1019.83 1019.83 1019.65 1019.43 1019.25 1019.23 1018.62 1018.20 1017.83 1017.70 1017.54 1017.35 1017.23 1017.10 1017.07 1016.72 1016.18 1016.28 1016.13 1016.17 1016.17 1016.44 1016.70 1016.96 1017.06 1016.89
1016.74 1017.20 1017.44 1017.92 1018.08 1017.96 1018.30 1018.48 1018.49 1018.42 1018.87 1019.11 1019.17 1019.33 1019.21 1019.53 1019.54 1019.38 1019.37 1018.73 1018.86 1018.75 1018.77 1018.54 1018.05 1017.83 1017.69 1017.46 1017.21 1016.94 1016.63 1016.18 1015.89 1015.59 1015.39 1015.17 1015.15 1015.20 1015.07 1015.25 1015.38 1015.23 1015.20
1017.26 1017.43 1017.51 1017.85 1017.90 1018.11 1017.99 1018.07 1018.10 1018.25 1018.57 1018.66 1018.75 1018.95 1019.06 1019.03 1019.06 1018.99 1018.87 1018.50 1018.53 1018.72 1018.69 1018.57 1018.04 1017.77 1017.58 1017.20 1017.17 1016.87 1016.21 1015.62 1015.13 1014.70 1014.20 1013.85 1013.42 1013.36 1013.42 1013.17 1013.50 1013.73 1013.82
1017.11 1017.21 1017.39 1017.50 1017.86 1018.22 1018.83 1018.73 1018.48 1018.16 1018.13 1018.17 1018.20 1018.58 1018.66 1018.63 1018.69 1018.61 1018.76 1018.64 1018.45 1018.41 1018.34 1017.97 1017.55 1017.32 1017.07 1016.98 1016.71 1016.16 1015.47 1015.08 1014.14 1014.14 1013.30 1012.80 1012.16 1011.65 1011.52 1011.78 1011.78 1012.03 1012.27
1016.82 1016.90 1017.10 1017.51 1017.89 1019.19 1019.69 1019.23 1018.97 1018.49 1018.17 1018.10 1017.88 1017.91 1018.09 1018.20 1018.21 1018.29 1018.40 1018.34 1018.34 1018.21 1017.89 1017.40 1016.79 1016.59 1016.59 1016.39 1016.19 1015.75 1015.07 1014.68 1013.25 1013.47 1012.51 1011.42 1011.43 1010.58 1010.17 1009.86 1009.59 1009.91 1010.03
1017.08 1016.93 1017.03 1017.38 1018.36 1019.61 1019.97 1019.49 1019.16 1018.68 1018.08 1017.81 1017.72 1017.80 1017.92 1018.09 1018.49 1018.51 1018.36 1018.22 1017.92 1017.71 1017.71 1017.51 1017.18 1016.76 1016.42 1016.20 1015.98 1015.42 1014.77 1013.96 1012.76 1012.12 1011.94 1010.53 1010.66 1009.65 1009.36 1008.75 1008.71 1008.61 1008.49
1017.36 1016.94 1017.49 1018.14 1019.21 1020.36 1020.34 1019.74 1019.18 1018.51 1017.82 1017.39 1017.48 1018.02 1018.36 1018.82 1019.42 1019.15 1018.43 1017.94 1017.75 1017.51 1017.63 1017.85 1017.89 1017.80 1017.56 1017.21 1016.70 1016.17 1015.50 1014.64 1013.25 1012.13 1011.83 1010.27 1009.89 1008.99 1008.66 1007.80 1007.39 1007.22 1007.08
1018.67 1018.79 1019.19 1019.71 1020.17 1020.87 1020.66 1019.98 1019.09 1017.63 1017.28 1017.55 1018.53 1019.06 1019.40 1019.72 1019.90 1019.51 1018.67 1018.35 1018.09 1017.77 1017.80 1017.82 1017.72 1017.42 1017.02 1016.63 1016.44 1015.99 1015.30 1014.42 1012.96 1011.72 1011.25 1010.67 1009.25 1008.56 1007.77 1006.54 1006.17 1005.80 1005.64
1019.63 1019.99 1020.50 1020.99 1021.15 1021.10 1021.01 1020.22 1019.37 1018.15 1017.86 1018.02 1018.91 1019.56 1020.27 1020.48 1020.22 1019.87 1019.27 1018.59 1018.43 1018.10 1017.91 1017.18 1016.67 1016.50 1016.41 1016.40 1016.38 1016.20 1015.92 1015.37 1014.39 1012.32 1011.52 1011.83 1010.55 1010.14 1007.76 1006.90 1005.60 1005.07 1004.44
Thickness
5667 5665 5665 5664 5664 5663 5660 5664 5662 5658 5656 5656 5654 5654 5654 5656 5652 5651 5641 5635 5635 5632 5631 5630 5627 5624 5623 5623 5622 5621 5620 5619 5617 5615 5614 5611 5609 5607 5605 5603 5601 5598 5595
5664 5666 5662 5662 5661 5662 5662 5662 5659 5656 5655 5654 5652 5651 5650 5650 5650 5647 5641 5635 5633 5632 5629 5628 5626 5623 5621 5619 5619 5618 5617 5615 5614 5612 5610 5608 5605 5603 5601 5599 5596 5594 5591
5657 5658 5658 5657 5660 5659 5658 5658 5656 5656 5654 5652 5651 5648 5649 5648 5648 5646 5645 5639 5631 5630 5628 5626 5624 5622 5620 5618 5616 5615 5615 5613 5611 5609 5607 5605 5603 5600 5598 5596 5593 5591 5588
5653 5652 5655 5653 5655 5655 5653 5654 5653 5655 5654 5651 5651 5647 5649 5646 5645 5644 5645 5642 5638 5634 5629 5626 5623 5621 5619 5618 5616 5614 5613 5612 5610 5608 5605 5602 5600 5598 5595 5593 5591 5588 5585
5648 5649 5652 5651 5650 5650 5650 5650 5649 5651 5651 5650 5648 5646 5647 5646 5643 5643 5643 5639 5638 5638 5635 5630 5625 5622 5619 5616 5615 5615 5614 5612 5609 5606 5604 5602 5599 5597 5594 5591 5589 5586 5583
5645 5643 5647 5646 5643 5646 5646 5646 5647 5647 5649 5647 5648 5644 5643 5643 5643 5642 5641 5638 5636 5634 5634 5630 5624 5622 5619 5617 5615 5614 5614 5612 5610 5607 5604 5602 5599 5596 5593 5590 5588 5585 5582
5640 5639 5642 5640 5639 5640 5641 5640 5641 5643 5643 5645 5642 5639 5638 5638 5639 5640 5640 5639 5637 5634 5631 5630 5630 5629 5625 5620 5617 5614 5612 5612 5611 5609 5606 5602 5600 5596 5593 5591 5588 5586 5583
5638 5637 5638 5638 5636 5639 5639 5637 5635 5637 5636 5638 5635 5637 5633 5637 5639 5637 5637 5638 5635 5635 5635 5632 5631 5629 5628 5623 5619 5616 5614 5612 5610 5609 5607 5604 5600 5597 5594 5591 5588 5585 5582
5632 5634 5635 5637 5636 5637 5638 5635 5632 5631 5631 5631 5630 5634 5631 5633 5644 5642 5636 5635 5635 5633 5634 5633 5632 5630 5629 5627 5625 5620 5617 5613 5610 5608 5606 5604 5601 5598 5596 5592 5588 5586 5583
5629 5632 5632 5631 5632 5634 5636 5632 5630 5630 5628 5626 5627 5626 5630 5631 5632 5636 5636 5634 5631 5632 5632 5631 5631 5629 5628 5626 5625 5623 5621 5617 5613 5608 5604 5603 5601 5598 5596 5594 5591 5587 5584
5633 5632 5633 5631 5630 5631 5632 5632 5629 5627 5627 5626 5625 5622 5621 5622 5621 5621 5625 5629 5630 5630 5632 5629 5628 5628 5626 5624 5624 5623 5621 5619 5614 5611 5607 5604 5602 5598 5595 5594 5591 5589 5586
5634 5635 5633 5632 5629 5628 5630 5629 5627 5625 5622 5624 5623 5624 5622 5617 5619 5619 5619 5623 5628 5630 5631 5629 5628 5625 5625 5625 5623 5621 5620 5618 5616 5615 5612 5608 5604 5602 5599 5596 5593 5590 5587
5631 5634 5631 5628 5629 5627 5627 5627 5624 5625 5623 5620 5619 5619 5622 5623 5620 5620 5619 5620 5621 5626 5627 5629 5626 5624 5622 5621 5622 5622 5621 5620 5619 5617 5615 5612 5607 5603 5600 5597 5594 5592 5590
5628 5632 5631 5626 5626 5625 5624 5622 5621 5621 5619 5620 5617 5616 5616 5619 5617 5616 5615 5616 5615 5623 5626 5626 5624 5620 5618 5618 5620 5618 5618 5619 5619 5618 5615 5610 5606 5603 5599 5596 5595 5593 5590
5625 5626 5627 5624 5622 5620 5621 5617 5617 5618 5619 5619 5617 5614 5613 5614 5613 5615 5615 5615 5613 5614 5623 5628 5627 5628 5625 5622 5621 5618 5618 5622 5619 5615 5613 5610 5609 5606 5603 5599 5596 5593 5592
5617 5619 5620 5618 5616 5615 5614 5611 5610 5610 5610 5612 5615 5613 5610 5611 5611 5612 5611 5612 5613 5613 5618 5622 5627 5625 5624 5624 5624 5621 5621 5620 5619 5617 5615 5611 5610 5609 5606 5603 5599 5595 5594
5613 5610 5607 5601 5605 5606 5602 5600 5600 5602 5607 5607 5609 5604 5605 5608 5608 5609 5608 5610 5612 5612 5611 5627 5623 5624 5622 5620 5619 5616 5620 5618 5619 5620 5618 5616 5614 5611 5606 5602 5599 5595 5592
5606 5595 5608 5599 5593 5598 5599 5599 5600 5600 5597 5599 5600 5600 5604 5603 5605 5607 5607 5609 5610 5611 5607 5612 5621 5620 5618 5619 5617 5615 5615 5613 5614 5619 5620 5621 5619 5616 5611 5605 5600 5597 5596
5594 5590 5590 5587 5591 5596 5596 5595 5593 5596 5597 5594 5594 5595 5598 5596 5599 5602 5602 5606 5606 5607 5605 5605 5610 5614 5611 5610 5609 5610 5612 5612 5611 5613 5612 5614 5615 5613 5610 5606 5603 5602 5599
5580 5582 5582 5584 5585 5586 5590 5592 5593 5592 5591 5592 5592 5591 5592 5593 5595 5597 5599 5602 5603 5600 5598 5596 5599 5602 5603 5604 5597 5597 5600 5607 5607 5608 5610 5612 5613 5612 5612 5612 5605 5602 5599
5573 5576 5577 5578 5577 5579 5574 5578 5582 5587 5588 5588 5590 5587 5587 5590 5590 5592 5591 5593 5593 5593 5592 5593 5594 5594 5592 5589 5589 5592 5594 5597 5606 5600 5605 5606 5607 5610 5609 5610 5607 5602 5597
5567 5570 5572 5572 5570 5562 5557 5564 5570 5577 5581 5583 5585 5587 5586 5585 5585 5585 5584 5584 5584 5585 5587 5588 5590 5587 5584 5581 5580 5581 5585 5584 5595 5590 5595 5604 5597 5604 5605 5604 5607 5605 5601
5555 5560 5563 5564 5560 5551 5547 5553 5558 5567 5574 5577 5580 5581 5581 5580 5576 5575 5576 5574 5573 5572 5569 5571 5575 5574 5572 5569 5565 5567 5570 5573 5583 5588 5579 5592 5587 5595 5596 5600 5599 5597 5597
5546 5554 5553 5550 5545 5536 5537 5542 5547 5556 5565 5569 5570 5566 5564 5562 5556 5557 5561 5565 5564 5562 5558 5554 5551 5548 5546 5543 5541 5542 5544 5546 5559 5570 5563 5567 5576 5578 5582 5589 5592 5591 5591
5529 5531 5531 5529 5529 5524 5526 5531 5538 5553 5554 5551 5543 5539 5538 5536 5534 5537 5545 5546 5546 5545 5542 5539 5536 5535 5534 5531 5527 5523 5526 5527 5539 5552 5550 5535 5557 5555 5562 5577 5579 5581 5582
5516 5514 5510 5508 5509 5511 5511 5517 5523 5535 5535 5532 5525 5520 5512 5512 5515 5518 5523 5528 5529 5528 5526 5529 5527 5524 5519 5515 5508 5502 5498 5495 5498 5516 5530 5502 5510 5512 5528 5546 5558 5561 5563